GFSFLT1_925_rhum_063.txt.gz
RH
93 90 96 99 100 100 100 100 100 99 90 88 85 81 79 79 64 52 51 50 44 44 51 60 59 57 59 61 63 63 59 58
93 87 96 100 100 100 100 100 96 86 85 84 84 75 77 65 70 61 66 68 67 64 66 66 68 67 67 65 65 66 63 59
96 93 94 100 99 100 100 100 98 90 86 86 83 84 68 54 52 56 45 63 66 68 65 66 66 66 70 70 67 67 63 63
96 97 100 97 100 100 99 98 93 89 85 82 77 71 63 56 49 48 44 49 58 60 56 65 63 64 66 70 68 65 64 66
89 93 99 98 95 98 100 98 90 86 83 79 79 75 73 66 59 43 48 57 60 50 56 60 62 64 69 68 70 70 69 70
88 88 91 97 96 98 100 100 95 90 84 78 73 73 71 65 62 65 60 58 57 50 45 50 54 54 64 70 74 78 73 76
78 78 83 90 92 94 96 97 93 89 85 80 75 75 73 70 63 59 56 53 51 44 42 45 56 59 65 70 73 75 77 79
77 79 79 83 88 91 94 96 93 88 89 84 79 77 73 70 66 62 62 57 49 46 38 52 56 54 68 72 79 88 92 93
72 74 73 76 80 84 88 87 89 87 86 84 79 77 76 73 70 66 63 62 54 46 51 61 57 52 56 77 90 96 100 100
65 68 69 70 71 75 80 78 79 81 83 80 79 77 77 76 76 79 72 61 57 59 61 59 60 64 67 84 75 87 82 99
60 62 64 66 65 67 72 76 69 70 77 74 74 75 76 80 79 80 81 76 76 77 78 70 61 65 79 76 89 96 100 99
54 59 59 62 63 64 67 73 74 69 68 73 69 69 70 75 81 83 84 86 86 88 89 90 88 90 88 100 100 99 99 97
42 54 57 60 62 63 66 68 71 75 77 75 75 69 69 70 77 77 84 89 90 86 85 99 91 98 100 100 100 99 100 98
42 50 57 58 61 62 63 66 71 73 82 84 85 87 89 82 97 76 99 94 94 87 81 89 100 100 100 100 100 100 100 98
46 47 54 55 56 60 61 64 67 76 84 88 88 82 87 86 90 90 100 100 97 88 66 80 99 100 100 100 100 100 100 100
45 52 52 52 55 56 58 59 67 72 84 87 89 86 91 95 98 99 100 100 100 99 92 98 100 100 100 100 100 100 99 99
41 50 56 65 67 65 58 60 65 74 85 85 84 84 93 99 100 100 100 100 100 100 100 100 100 100 100 100 98 100 100 96
31 51 52 59 73 65 74 69 71 77 78 85 87 99 100 100 100 99 100 100 100 100 100 100 100 100 100 100 100 98 94 91
28 37 57 59 77 83 86 96 95 91 93 98 100 100 100 100 100 100 100 100 100 100 100 100 99 100 100 100 95 91 99 100

GFSFLT1_925_rhum_069.txt.gz
RH
83 92 92 93 97 99 100 100 100 100 100 99 100 100 97 91 85 76 74 51 46 46 46 48 54 54 59 60 58 57 53 48
85 88 92 90 98 99 99 100 100 100 100 100 100 100 100 96 79 80 82 54 45 48 50 52 50 54 56 60 60 65 63 58
84 82 90 94 95 96 100 100 100 100 100 93 93 96 95 92 77 98 95 59 49 49 47 53 50 56 60 54 63 67 68 67
88 80 86 93 93 97 98 100 99 100 100 100 98 94 97 99 87 98 96 66 58 53 48 50 56 58 46 62 65 69 80 74
80 82 80 86 89 96 100 100 99 100 99 96 96 94 92 90 99 94 92 81 60 53 49 54 59 60 66 57 54 69 74 85
75 79 80 82 87 94 96 98 98 98 96 92 94 93 89 93 91 79 75 69 68 66 54 55 68 54 60 60 63 70 71 79
68 76 82 84 86 95 96 95 95 96 95 91 87 85 84 79 76 79 84 77 76 74 52 59 53 48 57 60 67 76 68 73
67 75 80 85 89 97 91 89 91 99 96 92 89 85 85 80 71 72 69 66 67 64 61 59 53 54 52 53 55 57 69 78
62 69 76 83 92 97 91 90 92 99 96 92 90 88 82 79 78 73 71 67 62 46 50 51 52 54 56 55 54 53 59 81
56 63 72 78 86 89 92 92 96 98 96 93 91 88 86 83 81 80 73 62 56 53 56 60 59 59 57 56 56 64 76 98
54 60 69 73 79 84 89 91 97 96 92 94 92 89 87 84 82 80 77 71 65 62 57 55 56 56 57 58 61 75 98 97
51 55 62 68 74 79 86 86 87 92 92 94 91 90 85 80 80 75 69 69 66 69 73 73 72 72 66 66 68 95 100 100
45 52 58 66 70 73 77 80 82 87 93 91 91 91 87 86 82 75 71 68 69 66 65 62 71 75 71 62 76 94 100 100
40 50 55 60 65 68 70 76 78 82 87 91 92 93 93 89 86 86 87 87 86 90 85 71 72 80 80 65 88 92 99 99
32 40 49 55 60 64 67 72 77 81 84 85 86 88 89 86 84 83 83 82 84 85 82 75 86 92 75 80 93 100 100 100
30 35 39 49 57 63 65 68 75 80 81 81 80 82 84 83 82 80 77 80 80 81 82 90 97 99 97 99 100 100 100 100
28 30 35 44 54 59 65 68 74 77 78 80 78 80 84 83 81 78 77 81 83 89 100 96 94 97 98 98 100 100 100 100
31 29 28 37 44 56 62 65 72 77 76 76 80 82 83 86 85 82 84 87 90 96 100 97 96 99 100 100 100 100 100 100
30 30 31 32 36 47 55 63 72 75 76 75 79 84 86 86 90 92 93 96 98 100 98 100 100 99 100 100 100 100 100 100

GFSFLT1_925_rhum_075.txt.gz
RH
35 42 42 46 55 73 97 99 99 100 100 100 100 100 100 93 95 87 76 71 69 58 55 54 55 55 49 47 48 48 45 41
34 44 46 50 57 70 84 98 99 100 100 100 100 100 97 93 87 82 70 62 61 53 52 58 57 46 45 52 55 53 51 48
33 45 50 54 57 70 90 100 99 100 100 100 99 98 97 99 91 84 62 72 65 58 56 67 62 54 59 62 63 62 58 56
33 42 50 56 56 68 74 96 99 99 98 99 98 100 98 96 100 96 68 62 63 54 58 68 71 69 69 72 74 72 69 74
30 39 45 52 54 61 75 88 99 100 98 100 99 97 98 93 98 100 89 67 66 62 77 83 80 76 75 78 80 76 70 68
28 36 41 47 52 59 61 84 88 99 100 99 99 98 94 99 99 92 90 83 80 72 80 74 65 67 69 76 83 77 76 67
24 32 38 43 48 57 62 80 80 85 93 88 90 85 89 98 100 100 93 92 84 85 82 72 56 54 60 62 60 60 66 68
23 31 36 40 47 55 61 65 67 82 89 88 87 78 77 86 92 99 100 89 93 93 88 76 59 62 64 66 64 58 63 65
21 26 34 39 46 52 59 57 57 64 84 86 87 83 80 75 78 77 84 92 93 96 89 85 66 63 72 73 67 66 66 66
20 23 30 37 44 50 56 50 50 54 67 76 80 81 79 81 78 82 81 76 78 85 86 80 70 66 76 76 74 68 63 66
16 22 27 34 41 48 55 52 46 48 57 64 67 70 74 77 77 79 80 81 81 84 87 82 81 75 75 73 71 68 68 65
18 22 25 32 38 45 54 57 47 47 51 58 61 64 65 69 76 75 77 77 79 77 82 77 72 70 70 70 67 68 70 72
15 20 23 29 36 42 49 54 51 46 51 58 62 63 63 66 69 72 74 72 72 73 72 75 73 69 69 70 69 68 70 66
14 18 24 28 34 39 44 52 53 50 50 57 63 65 66 66 69 70 69 73 71 70 69 71 71 69 69 68 68 66 64 62
15 14 17 25 32 37 41 46 52 53 52 56 60 65 66 66 67 69 69 70 71 71 71 70 68 67 65 63 62 63 65 65
17 16 15 16 26 33 38 40 46 52 53 56 60 64 66 65 65 66 67 69 69 69 70 71 72 71 68 66 65 65 68 68
20 18 18 16 16 26 32 38 42 49 54 56 58 61 64 65 66 67 67 68 68 66 67 67 70 70 69 68 70 77 82 88
30 30 25 21 18 20 21 30 38 45 51 54 55 58 62 64 66 66 68 69 69 68 67 66 66 68 68 70 75 86 88 88
32 32 31 26 24 22 21 23 29 41 47 50 52 55 58 61 64 64 66 68 71 72 73 72 71 69 70 72 79 86 92 98

GFSFLT1_925_rhum_078.txt.gz
RH
30 32 38 39 58 82 83 99 98 100 100 100 100 90 98 94 92 72 68 82 54 56 75 76 64 60 53 49 47 44 44 44
30 34 39 41 57 76 89 100 100 99 100 100 100 100 100 100 99 98 82 80 72 70 62 59 59 56 49 48 46 43 44 42
31 38 42 45 56 73 92 99 99 99 99 100 100 100 100 100 99 87 82 73 71 62 58 54 54 54 49 49 53 52 50 46
32 41 47 50 58 66 78 90 99 100 100 100 100 100 100 100 100 87 78 70 72 62 59 59 54 52 50 51 55 58 59 52
29 39 47 54 54 66 73 86 90 97 98 100 100 98 98 97 95 93 80 69 67 62 61 67 60 57 60 58 62 66 65 64
26 36 42 50 53 65 66 82 89 97 99 100 99 99 95 92 98 98 93 75 68 61 58 67 62 71 65 69 72 72 72 70
22 32 38 44 52 59 69 77 87 92 94 93 93 93 96 93 100 100 100 87 63 67 73 66 72 76 78 77 74 72 69 67
22 31 38 42 51 59 64 80 79 91 96 99 99 95 92 98 95 96 94 99 94 70 82 79 68 69 71 74 74 74 69 63
23 28 37 40 48 58 61 70 74 86 96 96 96 95 95 94 98 95 87 83 86 76 82 82 80 68 59 63 62 66 67 63
20 23 36 38 46 56 61 58 65 69 81 87 89 87 87 93 95 94 94 84 76 78 74 80 86 76 61 56 60 66 74 67
20 22 34 36 43 51 59 56 56 58 81 82 80 79 84 82 84 88 91 93 87 73 72 85 91 86 74 63 64 61 72 76
20 21 27 34 39 47 57 58 51 52 63 78 79 81 82 80 79 81 83 82 89 86 81 84 88 90 82 74 72 75 80 79
19 21 24 31 37 44 53 57 54 48 52 63 72 76 79 80 82 82 83 83 83 82 83 91 91 85 85 80 79 73 76 75
19 17 23 26 34 37 45 53 56 52 49 56 63 66 69 72 76 80 79 82 83 84 82 83 86 84 80 79 76 72 71 72
19 19 19 25 28 34 38 46 54 56 52 52 59 64 67 68 69 71 77 79 80 81 82 81 84 83 79 75 73 71 70 70
29 31 31 28 25 34 36 40 50 55 56 53 54 62 66 68 68 69 71 73 77 76 76 77 75 77 77 75 73 72 72 72
33 32 32 33 31 28 30 38 42 50 55 55 54 56 62 67 69 70 70 73 73 73 76 75 74 73 72 72 72 73 72 72
35 35 37 43 45 43 31 26 33 42 50 54 55 57 60 64 68 70 70 71 73 74 74 74 75 75 72 70 69 69 70 71
35 39 44 50 57 69 66 59 32 30 43 47 53 56 59 62 66 68 69 70 72 74 74 74 74 73 74 73 72 71 73 75

GFSFLT1_925_rhum_084.txt.gz
RH
45 64 78 83 85 87 93 91 87 85 91 100 98 100 100 100 100 100 99 88 83 78 63 35 40 43 60 59 50 52 55 54
46 70 84 91 94 95 93 89 88 92 94 100 98 100 99 100 100 100 100 97 98 88 62 54 48 49 60 60 60 58 54 55
52 76 90 95 100 94 90 87 99 90 91 98 99 99 99 98 100 100 98 97 98 90 66 64 50 57 57 59 57 58 56 56
53 73 88 93 100 99 89 88 89 94 94 100 100 100 100 100 100 100 97 96 93 86 76 65 58 61 51 59 54 52 56 59
49 60 87 94 99 96 89 93 91 95 99 100 99 99 96 97 100 100 100 94 88 87 83 66 65 64 60 59 53 49 52 61
50 56 72 85 98 98 93 100 95 91 100 100 100 100 100 100 100 100 91 86 86 82 77 76 72 66 64 67 54 49 48 52
47 49 65 88 99 100 100 100 99 98 100 100 100 100 100 100 100 95 90 85 82 69 72 69 66 62 73 67 56 48 45 44
49 57 69 86 97 100 100 100 100 100 100 100 100 100 98 99 98 94 89 87 84 69 70 70 69 66 71 69 59 52 46 47
51 60 62 75 85 94 97 100 100 100 99 100 99 94 98 98 99 93 89 84 82 74 78 74 68 65 61 59 54 55 54 52
54 61 60 70 77 88 90 93 93 92 92 94 100 99 99 98 98 96 95 86 81 80 76 74 69 68 69 59 62 61 60 59
55 60 62 65 74 80 89 89 90 92 88 90 94 99 100 96 95 97 95 92 84 82 80 75 71 67 71 71 70 67 68 63
51 53 56 64 73 78 85 90 93 93 92 91 91 95 98 93 94 93 95 90 88 83 80 78 77 74 73 73 78 76 73 72
46 55 62 69 70 77 83 85 86 93 92 93 89 86 94 100 100 95 93 96 92 87 86 80 79 79 79 82 86 81 80 85
51 53 60 67 70 70 72 79 83 85 97 97 98 98 100 100 99 97 96 97 97 94 86 87 90 85 85 87 87 85 81 82
59 66 69 69 73 83 85 78 70 72 83 95 96 96 95 93 91 88 86 82 87 92 90 89 88 89 90 91 93 88 81 80
67 71 70 70 76 80 82 80 81 73 71 88 91 90 90 90 88 87 88 90 88 91 86 87 89 89 89 90 92 96 92 87
67 67 72 75 80 84 86 86 85 82 84 82 83 89 93 92 91 89 90 90 90 94 95 96 95 93 92 89 89 91 93 93
71 75 77 82 86 87 87 86 89 91 94 90 95 93 91 90 93 95 93 93 93 93 93 94 96 98 94 91 92 92 94 94
78 80 82 84 86 87 86 88 88 89 91 93 94 98 96 92 88 91 91 92 96 96 97 95 96 95 94 94 92 93 97 96

GFSFLT1_925_rhum_090.txt.gz
RH
20 45 60 64 77 87 97 96 100 100 98 99 99 100 100 99 96 100 98 100 99 99 99 95 93 90 84 75 67 68 68 77
21 35 74 82 96 98 100 100 100 99 99 98 100 93 96 98 100 100 97 98 100 100 99 97 88 82 84 74 68 67 84 82
63 90 96 93 98 100 100 100 100 100 99 98 96 97 99 99 99 96 100 92 100 99 98 92 80 76 77 72 66 72 84 78
77 97 97 94 95 97 100 100 100 98 96 98 94 95 98 100 96 100 100 100 99 94 96 86 78 67 67 68 66 67 79 79
71 94 90 91 90 96 98 98 99 98 99 99 97 93 99 99 99 99 100 100 100 100 98 90 75 57 65 61 60 64 70 78
68 89 88 90 91 96 97 98 99 98 97 98 98 99 99 84 99 100 100 99 100 100 96 95 80 60 65 55 55 59 63 70
50 67 83 91 90 96 99 98 97 99 100 98 100 100 98 93 100 100 100 100 100 100 100 95 75 70 65 56 60 59 56 60
52 75 94 90 89 95 100 99 98 99 98 98 99 100 93 86 94 99 100 100 100 100 100 98 91 74 61 43 61 64 55 60
54 68 86 88 87 92 98 100 100 100 98 96 98 100 96 91 80 90 96 100 99 100 100 100 96 82 74 64 54 66 62 44
43 55 75 88 86 92 98 94 91 94 98 99 99 98 100 95 88 89 99 100 97 97 96 97 93 87 82 74 54 57 61 64
37 49 74 88 88 90 92 91 92 93 90 87 86 96 100 99 99 100 99 98 91 88 95 88 90 87 89 81 65 59 68 67
67 68 80 90 88 89 91 92 93 93 92 94 93 94 100 99 98 98 96 94 94 92 90 88 83 80 80 81 83 80 78 84
85 83 86 96 91 91 94 96 94 95 95 94 93 96 100 96 80 83 94 96 93 87 85 84 82 81 76 78 80 82 81 84
84 87 91 94 98 99 98 97 99 98 98 99 99 100 100 95 76 75 74 82 94 93 93 88 84 82 81 82 80 84 85 83
84 86 88 88 93 97 99 100 99 96 99 100 100 99 98 94 87 77 78 76 79 81 85 89 89 87 84 85 84 88 90 90
82 83 85 85 88 91 95 97 99 100 100 100 99 96 98 96 97 92 83 86 84 86 83 81 81 81 81 81 87 89 91 93
79 80 82 85 89 92 92 93 92 94 98 98 99 99 100 100 100 98 93 94 96 99 99 97 93 89 86 83 78 80 86 91
87 84 83 87 92 92 91 89 88 89 90 92 95 97 98 99 99 100 100 100 100 100 100 100 100 100 96 93 89 90 89 92
92 87 86 86 90 92 90 88 89 88 89 87 90 94 95 97 99 100 99 99 99 100 99 100 100 100 100 100 100 99 98 94

GFSFLT1_925_rhum_096.txt.gz
RH
12 12 16 22 30 43 58 73 92 99 99 100 99 100 100 99 100 100 99 99 98 99 100 100 100 100 100 99 94 84 76 67
13 13 15 20 26 41 54 69 93 100 100 100 100 100 99 100 96 98 99 99 100 100 100 100 100 100 98 96 88 82 77 70
14 14 15 23 28 41 53 63 96 99 96 92 92 97 98 95 100 95 98 99 99 97 100 100 100 100 100 97 86 81 78 73
16 16 17 22 36 42 52 61 96 98 81 85 93 88 90 94 98 96 98 100 99 100 100 100 100 100 100 94 85 80 78 76
26 20 18 19 35 44 51 67 96 98 90 83 79 78 80 86 90 89 99 100 100 100 98 100 99 100 94 90 86 76 72 74
36 30 22 20 31 48 57 80 95 98 95 78 79 69 62 81 84 94 100 100 100 100 100 99 100 99 94 86 82 77 74 70
38 36 30 24 31 52 67 92 95 98 95 82 78 70 67 77 84 93 100 100 100 98 100 97 97 98 93 88 85 83 82 76
43 41 38 27 40 57 76 94 93 95 93 88 84 74 72 75 83 92 99 100 100 100 100 99 98 94 91 87 83 81 79 80
48 52 50 38 41 56 79 90 90 93 94 91 90 74 88 74 80 92 100 100 100 99 100 100 94 97 93 91 91 88 88 88
57 66 53 44 41 56 79 82 75 89 91 93 94 85 93 78 76 78 86 99 100 99 100 100 99 96 96 86 84 86 87 83
69 73 55 39 42 56 81 83 80 93 91 94 96 95 93 80 81 86 86 95 99 100 100 100 100 100 99 96 80 78 79 84
76 78 75 46 50 67 86 88 88 95 95 93 93 96 94 87 82 87 92 97 99 99 100 100 100 100 100 99 95 90 86 76
78 80 87 73 67 84 88 88 95 94 94 90 95 93 94 94 89 89 90 97 97 96 100 100 99 100 99 95 89 84 83 62
80 82 86 91 96 90 90 94 95 95 93 95 89 80 86 95 96 89 92 92 95 94 93 100 100 100 100 97 91 85 79 70
84 86 88 90 95 98 100 99 93 93 92 88 90 87 88 96 93 84 97 96 87 88 90 90 93 96 96 93 91 88 89 88
94 93 91 90 92 96 99 100 100 100 100 100 99 96 94 95 89 82 87 80 82 89 94 95 93 91 93 94 94 97 98 97
92 97 91 91 93 93 97 100 100 100 99 100 100 100 100 100 100 100 99 99 98 92 92 92 94 96 96 94 93 95 94 94
100 100 100 96 94 92 97 99 100 100 97 97 99 99 100 100 100 100 100 100 100 100 100 100 100 100 100 100 97 95 94 89
100 100 100 100 99 95 91 91 94 98 96 100 99 97 100 100 100 99 100 100 100 100 100 100 100 99 95 96 98 100 100 100

GFSFLT1_925_rhum_099.txt.gz
RH
9 9 10 12 15 20 30 52 68 88 96 91 94 94 96 95 83 80 84 92 94 94 100 99 100 98 100 92 98 84 85 68
11 11 10 11 15 21 31 45 62 87 94 95 97 97 98 99 96 83 76 81 93 100 97 99 100 98 98 90 88 85 80 66
12 12 12 12 13 18 26 40 57 86 92 94 88 88 93 85 85 76 77 80 96 99 99 100 100 100 100 99 95 89 82 73
15 15 14 15 15 22 23 32 47 84 92 80 74 76 82 86 89 80 81 95 100 99 99 100 100 100 100 94 94 91 83 74
23 22 21 18 16 18 27 30 40 86 79 65 64 68 77 76 75 71 96 99 93 95 100 100 100 100 100 100 98 90 82 76
29 28 26 24 19 18 30 34 40 86 76 61 67 62 63 64 63 68 91 100 98 97 100 100 100 100 100 100 95 86 78 74
32 31 31 30 24 20 30 41 55 84 79 65 67 63 56 57 65 77 99 100 100 99 99 99 100 100 100 99 92 83 80 74
35 36 37 41 35 22 31 46 70 86 88 70 66 63 57 57 70 77 100 100 100 99 100 100 99 100 100 95 89 84 82 77
39 42 49 52 44 30 35 51 75 85 91 72 67 63 61 58 69 75 94 100 99 99 100 94 99 96 96 92 95 93 83 78
44 51 60 58 64 36 39 70 80 89 90 74 69 66 62 57 72 78 92 98 100 98 100 100 99 100 95 94 94 92 88 87
52 60 67 70 74 34 45 80 82 89 90 81 75 66 70 64 77 83 87 90 99 100 99 100 100 100 100 100 100 100 97 99
60 69 76 77 87 39 71 78 83 89 92 89 82 71 72 70 76 80 82 88 97 100 100 100 100 100 100 100 99 100 99 92
62 73 80 81 89 92 83 82 90 93 94 93 89 81 76 82 80 79 79 89 92 100 100 100 100 100 100 99 100 95 88 89
66 75 82 84 90 95 98 96 96 97 96 92 91 87 83 87 83 84 89 86 92 93 97 100 100 100 100 100 99 98 94 90
73 81 84 87 90 94 98 100 100 99 98 93 92 90 88 90 85 83 86 86 86 88 94 94 99 99 100 100 99 95 88 82
85 90 88 90 92 95 97 99 100 100 100 100 98 91 92 94 92 88 84 86 90 87 88 90 90 91 100 100 98 92 88 86
94 90 94 93 97 98 99 99 100 100 100 100 100 100 100 100 100 94 98 97 98 89 90 95 100 100 100 98 98 100 94 92
100 100 100 100 100 100 100 100 100 100 100 100 100 100 100 100 100 100 100 100 100 100 100 100 100 100 100 98 96 96 98 98
98 100 99 100 100 100 100 99 99 100 100 100 100 100 100 100 100 100 100 100 100 100 100 100 100 98 95 97 100 100 100 100

GFSFLT1_925_rhum_102.txt.gz
RH
10 8 8 9 10 12 54 74 78 87 91 85 79 76 83 76 72 77 77 86 89 94 98 94 84 91 93 98 96 91 85 85
10 10 9 10 10 14 46 68 85 90 95 91 84 86 85 85 84 76 80 83 86 91 97 93 92 100 97 93 99 98 99 87
14 14 12 11 12 14 20 56 76 87 93 90 88 88 88 90 86 84 82 82 85 90 96 99 96 100 100 99 99 98 97 88
16 18 20 20 20 20 17 29 62 79 89 90 91 87 86 90 89 85 82 77 77 92 96 99 99 100 100 99 99 93 90 96
23 25 26 24 23 21 21 20 34 67 87 89 84 83 84 88 82 83 82 81 91 97 100 100 99 100 100 100 95 93 89 95
31 31 30 28 28 27 24 24 24 61 88 86 80 71 76 78 80 77 78 95 100 100 98 100 100 100 100 99 100 95 91 92
33 33 35 36 40 46 38 30 30 64 86 77 70 69 68 71 72 74 98 100 99 100 100 95 99 100 100 100 99 95 91 89
39 40 44 49 52 52 52 37 35 75 83 78 69 68 65 62 65 72 99 100 96 100 100 98 100 100 100 100 100 100 96 91
45 48 54 62 62 66 62 68 40 79 84 76 70 69 67 61 65 75 98 93 99 100 98 99 100 99 98 100 100 100 95 91
49 54 64 72 71 76 80 81 55 83 87 80 74 70 64 59 69 76 92 97 100 100 98 100 99 100 100 99 100 96 92 86
53 60 71 76 79 84 88 57 75 84 84 79 82 73 66 60 70 84 95 96 99 99 99 100 100 98 99 95 91 92 89 92
60 66 75 81 85 89 96 78 77 86 87 82 86 79 66 64 75 83 88 96 100 98 97 100 100 100 99 100 99 99 100 99
67 70 78 84 88 91 96 99 89 90 95 91 88 86 71 67 83 86 85 99 93 96 100 99 100 100 100 100 100 99 96 100
78 79 81 86 90 92 96 99 100 100 96 92 87 88 76 70 82 84 80 94 95 97 100 99 100 100 100 100 100 99 99 96
80 83 86 87 92 94 97 99 100 100 99 98 94 91 84 80 83 80 85 92 94 99 99 98 99 99 100 100 100 100 100 97
90 90 85 92 92 95 97 99 100 100 100 100 100 100 93 90 89 84 82 83 83 82 92 97 99 100 100 100 100 100 100 98
94 95 93 90 98 97 99 100 100 100 100 100 100 100 100 100 98 95 96 98 98 94 100 100 100 100 100 99 99 100 99 94
99 99 98 98 100 100 100 100 100 100 100 100 100 100 100 100 100 100 100 100 100 100 100 100 100 100 100 100 100 100 100 100
92 99 98 100 100 99 100 98 99 100 100 100 100 100 100 100 99 99 100 100 100 100 100 100 100 100 99 100 100 100 100 100

GFSFLT1_925_rhum_108.txt.gz
RH
15 11 10 10 12 48 57 68 79 80 84 89 88 82 83 82 85 89 88 94 91 90 88 86 85 86 88 95 100 100 98 100
14 11 12 12 11 28 67 83 91 92 92 95 90 86 81 79 80 85 85 90 97 93 89 88 87 89 90 96 100 100 100 99
16 17 24 24 24 45 63 77 91 89 90 92 93 94 90 84 87 91 86 81 89 98 95 92 90 93 93 100 99 100 100 100
49 56 63 63 66 72 86 94 98 91 87 98 92 98 94 93 91 90 92 87 83 86 92 96 98 98 97 100 100 99 98 100
60 65 68 70 70 65 71 95 99 99 94 100 93 94 94 88 87 87 92 92 89 88 86 89 92 97 100 99 99 100 99 96
67 66 65 71 73 71 67 65 88 97 97 99 93 88 88 85 84 85 81 86 87 88 86 86 90 95 93 97 96 100 100 96
66 65 68 73 76 80 78 75 64 64 92 97 94 90 87 86 89 87 77 81 82 90 89 88 89 87 93 98 96 100 100 97
74 75 75 75 76 83 84 88 88 74 66 88 99 91 87 83 89 91 96 97 97 92 90 89 86 87 94 99 100 100 100 100
80 77 77 79 81 86 90 91 92 94 79 67 96 95 94 89 87 91 94 94 90 88 90 86 88 93 96 99 100 100 100 100
80 78 80 81 85 89 93 94 95 97 100 66 69 97 94 89 85 87 86 89 90 93 90 92 95 96 99 100 100 100 100 99
79 78 81 84 88 91 96 95 97 99 100 87 70 98 94 87 88 87 88 89 90 98 93 97 92 99 99 100 100 100 100 100
82 79 82 85 90 92 95 98 99 99 100 100 99 99 98 90 85 88 90 89 87 94 98 89 99 98 98 99 99 100 100 100
85 84 87 88 90 94 96 98 99 100 100 100 100 94 95 96 88 93 94 89 87 87 91 93 99 98 99 100 99 100 100 100
86 87 88 92 95 93 97 98 100 100 100 100 100 100 99 98 94 97 95 92 92 93 95 97 99 100 98 99 100 100 100 100
84 88 92 94 96 98 97 99 100 100 100 100 100 100 100 100 100 99 93 93 88 98 94 97 100 100 99 99 100 99 99 99
88 93 94 97 97 98 99 98 100 100 100 100 100 100 100 99 100 99 100 100 94 100 96 100 100 100 100 100 100 100 100 100
86 92 93 96 98 98 99 100 100 100 99 100 100 100 100 100 98 100 100 100 100 100 100 100 100 100 99 100 100 100 100 100
95 94 96 98 99 100 100 100 100 99 100 100 100 100 100 100 99 99 100 100 100 100 100 100 100 100 100 100 100 100 100 100
88 90 94 97 100 99 100 100 99 99 100 100 100 100 99 100 97 99 98 100 100 100 100 100 99 100 100 100 100 100 100 100

GFSFLT1_925_rhum_111.txt.gz
RH
16 21 23 41 60 70 72 76 79 83 91 98 100 92 86 83 84 85 86 87 86 85 86 85 87 89 89 88 91 99 100 100
18 16 20 20 26 66 74 85 88 96 98 100 100 99 91 92 88 86 87 87 91 90 90 88 89 92 92 92 97 100 100 98
56 70 69 77 71 26 66 90 89 90 96 91 93 99 100 100 99 89 88 87 91 95 94 93 93 97 100 100 100 98 100 99
64 65 74 75 78 82 87 85 96 99 99 99 94 98 99 100 98 91 91 92 90 95 96 91 92 95 99 100 99 100 98 100
67 70 76 79 81 76 87 100 97 100 96 98 97 94 92 96 97 100 99 93 91 90 100 99 90 91 100 99 99 100 100 99
75 74 76 80 83 84 80 84 92 99 98 97 95 99 91 90 94 99 100 96 94 88 93 99 100 100 100 100 99 100 100 97
77 75 76 82 87 89 86 87 81 76 94 100 96 97 96 88 91 95 96 96 97 91 87 87 88 94 100 100 94 98 99 100
86 84 82 83 88 92 90 91 91 90 76 82 98 99 95 91 90 91 98 100 97 84 80 92 92 92 92 85 83 91 99 100
84 81 82 86 88 93 96 94 92 97 99 90 76 95 100 95 92 92 91 92 90 84 88 88 89 85 92 90 87 89 96 100
83 80 81 85 89 92 96 96 94 97 98 100 99 75 98 98 95 92 88 85 86 83 91 95 88 91 94 85 94 100 100 100
84 82 84 85 89 92 95 97 96 99 99 99 100 100 80 100 96 98 96 90 90 90 98 96 85 87 89 89 100 100 100 100
93 86 86 88 91 93 96 98 98 100 100 100 100 100 83 100 96 98 95 93 94 95 96 93 86 87 89 92 98 99 99 100
86 87 89 90 94 95 96 98 99 100 100 100 99 100 100 100 97 98 100 100 99 99 99 96 92 95 91 95 99 100 100 100
83 84 89 92 93 96 96 98 100 100 100 100 100 100 100 100 100 99 100 100 100 100 100 99 99 92 94 97 96 99 99 99
87 87 87 93 94 95 97 98 99 100 99 100 100 100 100 100 100 100 100 100 100 100 99 100 96 93 94 97 93 97 96 99
89 90 89 91 94 95 96 98 99 99 100 100 100 100 100 99 99 99 99 100 100 100 100 100 100 99 100 100 100 100 100 99
88 88 88 93 94 95 98 99 99 99 99 100 100 100 100 96 99 96 98 100 99 100 100 100 100 100 100 99 100 100 100 100
95 95 94 97 99 98 100 100 100 100 100 100 100 100 100 100 98 94 95 98 98 100 99 100 100 100 100 100 100 100 100 100
92 94 96 98 99 97 100 100 100 100 100 100 100 100 100 100 100 98 99 97 98 98 99 99 100 100 100 100 100 100 100 100

GFSFLT1_925_rhum_114.txt.gz
RH
17 18 28 62 72 74 78 86 86 86 92 99 98 87 78 70 73 78 76 85 89 91 88 85 89 95 94 93 96 100 95 92
50 50 38 39 62 78 85 94 95 100 100 100 99 100 97 85 76 79 81 80 87 92 91 88 89 94 95 98 100 98 100 99
66 75 81 81 74 45 85 97 98 100 100 100 99 99 100 99 96 85 86 85 84 90 90 89 90 99 100 100 100 100 100 99
72 73 83 86 88 84 70 82 93 98 100 100 99 100 98 100 99 92 85 90 92 92 90 91 92 97 100 100 100 100 100 100
78 79 82 89 90 88 95 100 100 100 100 100 97 96 95 97 99 100 100 97 92 93 92 95 90 92 99 100 99 99 100 99
86 83 82 89 92 91 88 90 99 100 100 98 96 98 95 93 97 100 100 98 99 97 97 100 97 87 93 90 98 100 100 99
82 82 85 88 93 92 89 87 87 91 99 100 100 96 96 96 100 100 100 100 99 100 100 100 99 99 99 100 100 100 100 100
83 84 82 85 89 92 93 92 92 91 89 93 100 100 98 95 97 99 100 100 100 100 100 100 100 98 99 100 100 100 99 100
89 84 84 87 90 93 94 93 94 96 97 96 92 92 99 100 96 95 98 100 100 100 100 100 100 96 88 93 100 100 100 95
91 87 87 89 90 94 96 96 96 98 99 99 100 94 86 96 100 95 95 94 91 96 97 100 100 99 94 95 100 100 99 97
90 89 87 91 92 94 97 98 97 98 100 100 100 100 100 85 94 97 95 96 95 92 92 96 100 100 98 99 100 100 100 100
95 88 94 90 92 95 97 98 98 99 100 100 100 100 100 100 85 99 97 91 94 96 94 97 100 100 100 100 100 100 100 100
98 96 95 96 92 93 96 98 98 100 100 100 100 100 100 100 99 100 100 86 93 96 100 100 100 100 100 100 100 98 92 95
88 92 91 89 90 93 96 98 99 99 100 100 100 100 99 100 100 100 99 100 99 99 100 100 100 100 100 97 95 90 87 94
87 88 89 90 90 94 97 99 100 99 99 100 100 100 100 100 100 99 100 100 100 100 98 100 100 100 100 99 93 93 94 98
89 91 90 93 90 96 98 100 100 100 99 99 100 100 100 100 100 99 99 99 100 100 100 100 100 100 100 100 98 95 93 96
88 90 91 93 92 96 99 100 100 100 100 100 100 100 100 100 100 100 100 94 97 98 100 100 100 100 100 99 100 100 95 100
94 94 95 97 96 97 100 100 100 100 100 100 100 100 100 100 100 100 100 100 99 96 98 96 98 98 100 99 100 100 100 100
91 95 97 99 99 95 97 100 100 100 100 100 100 100 100 100 100 100 100 100 100 100 99 100 93 97 100 98 100 100 100 100